FENGYUN 1C DEB

Satellite information

Favourite Embed

Satellite Type and Status

DEBRISIN ORBIT

Key statistics

Satellite FENGYUN 1C DEB at a glance.

Uptime

9617

Days in orbit

Revolutions

≈ 14.5

Per day

Orbit

SSO

Sun Synchronous Orbit

Inclination

98.7

Latest

Satellite identification and parameters

Extended collection of information and parameters for FENGYUN 1C DEB.

Object identification

Identified? True

Debris? True

Object name: FENGYUN 1C DEB

International designator: 1999-025HC

Object number (NORAD): 29906

Object ID (CCSDS): 29906

Country: PEOPLES REPUBLIC OF CHINA (PRC)

Current information (Y/N): Y

RCS size: SMALL

Orbital parameters

Period: 99.507 minutes

Inclination: 98.7053 deg

SMA: 7113.15 km

Apoapsis: 761.882 km

Periapsis: 708.149 km

RAAN: 350.2213 deg

Eccentricy: 0.003777

Argument of periapsis: 82.9146 deg

Mean anomaly: 277.6338 deg

Mean motion: 14.47137433 rev/day

Mean motion (dot): 0.00013142 rev/day2

B* drag term: 0.0035775745 1/REarth

Two-line elements (TLE)

Creation date: Sept. 7, 2025, 3:09 a.m.

Reference frame: TEME

Reference center: EARTH

Epoch: Sept. 6, 2025, 6:59 p.m. UTC

TLE line 0: 0 FENGYUN 1C DEB

TLE line 1: 1 29906U 99025HC 25249.79159279 .00013142 00000-0 35776-2 0 9993

TLE line 2: 2 29906 98.7053 350.2213 0037770 82.9146 277.6338 14.47137433967544

Live tracking on map

Real-time ground track for satellite FENGYUN 1C DEB.

In-orbit conjunctions

A list of the most updated potential collisions computed for object FENGYUN 1C DEB.

Target Orbit TCA Probability of collision Miss distance Type
EOLE 1 (CAS-A) LEO 2025-02-13 09:49:11 0.0001482785 780.0 (m) PAYLOAD
FENGYUN 1C DEB SSO 2024-06-28 08:16:30 0.0002624716 29.0 (m) DEBRIS

Associated space launch

Chinese polar orbiting meteorological satellite

FENGYUN 1C DEB was lifted into orbit during the mission ‘Long March 4B | Feng Yun 1C’, on board a Long March 4B space rocket.

The launch took place on May 10, 1999, 1:33 a.m. from Launch Complex 7.

For more information about the launch, click the button.

Launch to space Long March 4B | Feng Yun 1C
Long March 4B | Feng Yun 1C

Agency: N/A

Status: Launch Successful

Launch date: May 10, 1999, 1:33 a.m. UTC

Rocket: Long March 4B

Launch pad: Launch Complex 7

Location: Taiyuan Satellite Launch Center, People's Republic of China

...

Latest news about this satellite

There are no fresh news available about this satellite. Check back as we update our databases every day.


Newsletter sign-up

Weekly statistics, charts and insights to help you stay on top of the space industry.